N505ZG KLAX-KCRQ

Flight info

Callsign N505ZG
Flight time 0h 46m
Altitude 9000
Route LAXP61
Aircraft C208/L-SDFGR/C

Departure

Time 2026-04-29 03:18
Airport Los Angeles International Airport (KLAX)

Arrival

Time 2026-04-29 04:04
Airport McClellan-Palomar Airport (KCRQ)
Time Latitude Longitude Altitude Speed Heading
2026-04-29 03:03 33.93334 -118.39716 106 ft 0 kts 104°
2026-04-29 03:10 33.93350 -118.39701 106 ft 5 kts 53°
2026-04-29 03:10 33.93382 -118.39671 106 ft 0 kts 355°
2026-04-29 03:12 33.93395 -118.39691 107 ft 8 kts 292°
2026-04-29 03:12 33.93414 -118.39777 107 ft 13 kts 283°
2026-04-29 03:12 33.93461 -118.39760 108 ft 17 kts 84°
2026-04-29 03:13 33.93480 -118.39572 108 ft 26 kts 83°
2026-04-29 03:13 33.93503 -118.39342 107 ft 29 kts 84°
2026-04-29 03:13 33.93529 -118.39093 107 ft 31 kts 84°
2026-04-29 03:13 33.93556 -118.38834 106 ft 32 kts 82°
2026-04-29 03:14 33.93580 -118.38590 106 ft 23 kts 82°
2026-04-29 03:14 33.93598 -118.38432 106 ft 21 kts 84°
2026-04-29 03:14 33.93626 -118.38289 106 ft 9 kts 38°
2026-04-29 03:14 33.93643 -118.38279 107 ft 0 kts 17°
2026-04-29 03:15 33.93682 -118.38281 108 ft 11 kts 350°
2026-04-29 03:15 33.93728 -118.38372 108 ft 13 kts 262°
2026-04-29 03:15 33.93724 -118.38402 108 ft 0 kts 263°
2026-04-29 03:17 33.93718 -118.38470 107 ft 31 kts 263°
2026-04-29 03:17 33.93668 -118.38958 107 ft 82 kts 262°
2026-04-29 03:17 33.93579 -118.39743 208 ft 106 kts 261°
2026-04-29 03:18 33.93475 -118.40652 465 ft 110 kts 259°
2026-04-29 03:18 33.93347 -118.41533 839 ft 103 kts 258°
2026-04-29 03:18 33.93229 -118.42368 1191 ft 100 kts 258°
2026-04-29 03:18 33.93113 -118.43175 1521 ft 98 kts 259°
2026-04-29 03:19 33.92995 -118.44005 1801 ft 104 kts 258°
2026-04-29 03:19 33.92869 -118.44883 2057 ft 108 kts 258°
2026-04-29 03:19 33.92737 -118.45791 2316 ft 111 kts 259°
2026-04-29 03:19 33.92602 -118.46722 2574 ft 114 kts 258°
2026-04-29 03:20 33.92466 -118.47665 2829 ft 116 kts 259°
2026-04-29 03:20 33.92236 -118.48588 3085 ft 117 kts 230°
2026-04-29 03:20 33.91583 -118.49160 3360 ft 116 kts 210°
2026-04-29 03:20 33.90908 -118.49667 3654 ft 113 kts 212°
2026-04-29 03:21 33.90245 -118.50170 3949 ft 112 kts 212°
2026-04-29 03:21 33.89600 -118.50657 4239 ft 110 kts 212°
2026-04-29 03:21 33.88957 -118.51141 4534 ft 108 kts 211°
2026-04-29 03:21 33.88329 -118.51614 4842 ft 104 kts 212°
2026-04-29 03:22 33.87695 -118.52090 4997 ft 117 kts 212°
2026-04-29 03:22 33.86952 -118.52654 5013 ft 135 kts 212°
2026-04-29 03:22 33.86120 -118.53282 5013 ft 147 kts 212°
2026-04-29 03:22 33.85228 -118.53955 5011 ft 156 kts 212°
2026-04-29 03:23 33.84194 -118.54405 5010 ft 162 kts 193°
2026-04-29 03:23 33.83083 -118.54705 5008 ft 165 kts 193°
2026-04-29 03:23 33.81957 -118.55013 5010 ft 166 kts 193°
2026-04-29 03:23 33.80822 -118.55323 5007 ft 167 kts 193°
2026-04-29 03:24 33.79684 -118.55633 5010 ft 168 kts 193°
2026-04-29 03:24 33.78547 -118.55942 5009 ft 168 kts 193°
2026-04-29 03:24 33.77407 -118.56253 5010 ft 168 kts 193°
2026-04-29 03:24 33.76267 -118.56564 5009 ft 168 kts 193°
2026-04-29 03:25 33.75128 -118.56871 5009 ft 168 kts 193°
2026-04-29 03:25 33.73999 -118.57177 5008 ft 168 kts 193°
2026-04-29 03:25 33.72843 -118.57491 5008 ft 168 kts 193°
2026-04-29 03:25 33.71702 -118.57800 5008 ft 168 kts 193°
2026-04-29 03:26 33.70578 -118.58105 5009 ft 168 kts 193°
2026-04-29 03:26 33.69433 -118.58035 5001 ft 169 kts 156°
2026-04-29 03:26 33.68648 -118.57019 5000 ft 171 kts 111°
2026-04-29 03:26 33.68449 -118.55611 5006 ft 171 kts 101°
2026-04-29 03:27 33.68066 -118.54264 5007 ft 170 kts 115°
2026-04-29 03:27 33.67560 -118.52974 5008 ft 170 kts 116°
2026-04-29 03:27 33.67058 -118.51682 5008 ft 171 kts 115°
2026-04-29 03:27 33.66559 -118.50386 5009 ft 171 kts 115°
2026-04-29 03:28 33.66065 -118.49102 5008 ft 171 kts 115°
2026-04-29 03:28 33.65566 -118.47805 5006 ft 171 kts 115°
2026-04-29 03:28 33.65065 -118.46508 5007 ft 171 kts 115°
2026-04-29 03:28 33.64566 -118.45211 5007 ft 171 kts 115°
2026-04-29 03:29 33.64066 -118.43916 5007 ft 171 kts 115°
2026-04-29 03:29 33.63567 -118.42621 5005 ft 171 kts 115°
2026-04-29 03:29 33.63066 -118.41325 5005 ft 171 kts 115°
2026-04-29 03:29 33.62567 -118.40029 5006 ft 171 kts 115°
2026-04-29 03:30 33.62071 -118.38743 5005 ft 171 kts 115°
2026-04-29 03:30 33.61570 -118.37450 5004 ft 171 kts 115°
2026-04-29 03:30 33.61070 -118.36154 5003 ft 171 kts 115°
2026-04-29 03:30 33.60570 -118.34859 5003 ft 171 kts 115°
2026-04-29 03:31 33.59569 -118.32272 5002 ft 171 kts 115°
2026-04-29 03:31 33.59074 -118.30993 5002 ft 171 kts 115°
2026-04-29 03:31 33.58566 -118.29683 5002 ft 171 kts 115°
2026-04-29 03:32 33.58066 -118.28392 5002 ft 171 kts 115°
2026-04-29 03:32 33.57566 -118.27098 5001 ft 171 kts 115°
2026-04-29 03:32 33.57071 -118.25824 5003 ft 171 kts 115°
2026-04-29 03:32 33.56571 -118.24532 5004 ft 171 kts 115°
2026-04-29 03:33 33.56063 -118.23225 5004 ft 171 kts 115°
2026-04-29 03:33 33.55569 -118.21951 5002 ft 171 kts 115°
2026-04-29 03:33 33.55068 -118.20661 5002 ft 171 kts 115°
2026-04-29 03:33 33.54567 -118.19372 5002 ft 171 kts 115°
2026-04-29 03:34 33.54066 -118.18082 5002 ft 171 kts 115°
2026-04-29 03:34 33.53565 -118.16791 5000 ft 171 kts 115°
2026-04-29 03:34 33.53063 -118.15501 5000 ft 171 kts 115°
2026-04-29 03:34 33.52561 -118.14211 5000 ft 171 kts 115°
2026-04-29 03:35 33.52059 -118.12920 4999 ft 171 kts 115°
2026-04-29 03:35 33.51557 -118.11630 4999 ft 171 kts 115°
2026-04-29 03:35 33.51055 -118.10340 5000 ft 171 kts 115°
2026-04-29 03:35 33.50552 -118.09050 5001 ft 171 kts 115°
2026-04-29 03:36 33.50050 -118.07760 5001 ft 171 kts 115°
2026-04-29 03:36 33.49546 -118.06468 4999 ft 171 kts 115°
2026-04-29 03:36 33.49213 -118.05615 5001 ft 171 kts 115°
2026-04-29 03:36 33.48546 -118.03903 5002 ft 171 kts 115°
2026-04-29 03:37 33.48044 -118.02615 5002 ft 171 kts 115°
2026-04-29 03:37 33.47540 -118.01328 5000 ft 171 kts 115°
2026-04-29 03:37 33.47037 -118.00038 4999 ft 170 kts 115°
2026-04-29 03:37 33.46696 -117.99168 4999 ft 171 kts 116°
2026-04-29 03:38 33.46192 -117.97879 4999 ft 170 kts 115°
2026-04-29 03:38 33.45696 -117.96608 4997 ft 171 kts 115°
2026-04-29 03:38 33.45193 -117.95321 4999 ft 170 kts 115°
2026-04-29 03:38 33.44690 -117.94036 4999 ft 170 kts 116°
2026-04-29 03:39 33.44186 -117.92749 5000 ft 170 kts 116°
2026-04-29 03:39 33.43681 -117.91461 4997 ft 171 kts 116°
2026-04-29 03:39 33.43177 -117.90174 4998 ft 170 kts 115°
2026-04-29 03:39 33.42674 -117.88888 4998 ft 171 kts 115°
2026-04-29 03:40 33.42168 -117.87599 4999 ft 171 kts 116°
2026-04-29 03:40 33.41663 -117.86311 4996 ft 171 kts 115°
2026-04-29 03:40 33.41172 -117.85015 4997 ft 171 kts 114°
2026-04-29 03:40 33.40703 -117.83709 4997 ft 171 kts 113°
2026-04-29 03:41 33.40254 -117.82391 4997 ft 171 kts 112°
2026-04-29 03:41 33.39795 -117.81102 4994 ft 171 kts 117°
2026-04-29 03:41 33.39240 -117.79847 4995 ft 171 kts 118°
2026-04-29 03:41 33.38716 -117.78575 4997 ft 170 kts 116°
2026-04-29 03:42 33.38208 -117.77294 4997 ft 170 kts 116°
2026-04-29 03:42 33.37702 -117.76012 4994 ft 170 kts 116°
2026-04-29 03:42 33.37195 -117.74733 4994 ft 170 kts 116°
2026-04-29 03:42 33.36687 -117.73451 4994 ft 170 kts 116°
2026-04-29 03:43 33.36182 -117.72175 4994 ft 170 kts 116°
2026-04-29 03:43 33.35675 -117.70897 4992 ft 170 kts 116°
2026-04-29 03:43 33.35167 -117.69614 4992 ft 170 kts 116°
2026-04-29 03:43 33.34697 -117.68431 4992 ft 170 kts 116°
2026-04-29 03:44 33.34189 -117.67150 4991 ft 170 kts 116°
2026-04-29 03:44 33.33681 -117.65869 4990 ft 170 kts 116°
2026-04-29 03:44 33.33173 -117.64592 4994 ft 170 kts 116°
2026-04-29 03:44 33.32666 -117.63318 4995 ft 170 kts 116°
2026-04-29 03:45 33.32159 -117.62039 4995 ft 170 kts 116°
2026-04-29 03:45 33.31657 -117.60777 4993 ft 170 kts 116°
2026-04-29 03:45 33.31158 -117.59527 4985 ft 152 kts 117°
2026-04-29 03:45 33.30751 -117.58521 4902 ft 122 kts 116°
2026-04-29 03:46 33.30398 -117.57630 4622 ft 115 kts 117°
2026-04-29 03:46 33.30060 -117.56804 4462 ft 108 kts 117°
2026-04-29 03:46 33.29729 -117.55949 4352 ft 115 kts 114°
2026-04-29 03:46 33.29416 -117.55126 4469 ft 100 kts 117°
2026-04-29 03:47 33.29113 -117.54367 4646 ft 105 kts 115°
2026-04-29 03:47 33.28785 -117.53547 4818 ft 114 kts 116°
2026-04-29 03:47 33.28432 -117.52666 4983 ft 121 kts 116°
2026-04-29 03:47 33.28043 -117.51697 5017 ft 137 kts 116°
2026-04-29 03:48 33.27612 -117.50625 5015 ft 148 kts 116°
2026-04-29 03:48 33.27157 -117.49487 5011 ft 155 kts 116°
2026-04-29 03:48 33.26693 -117.48322 5012 ft 158 kts 116°
2026-04-29 03:48 33.26216 -117.47127 5011 ft 160 kts 116°
2026-04-29 03:49 33.25727 -117.45902 5008 ft 162 kts 116°
2026-04-29 03:49 33.25248 -117.44700 5007 ft 162 kts 116°
2026-04-29 03:49 33.24761 -117.43482 5008 ft 162 kts 116°
2026-04-29 03:49 33.24272 -117.42263 5008 ft 163 kts 116°
2026-04-29 03:50 33.23963 -117.40977 4927 ft 157 kts 97°
2026-04-29 03:50 33.23838 -117.39730 4814 ft 147 kts 98°
2026-04-29 03:50 33.23697 -117.38551 4690 ft 141 kts 98°
2026-04-29 03:50 33.23563 -117.37417 4574 ft 136 kts 98°
2026-04-29 03:51 33.23434 -117.36310 4502 ft 130 kts 98°
2026-04-29 03:51 33.23312 -117.35247 4489 ft 130 kts 98°
2026-04-29 03:51 33.23186 -117.34173 4495 ft 131 kts 98°
2026-04-29 03:51 33.23060 -117.33106 4498 ft 132 kts 98°
2026-04-29 03:52 33.22933 -117.32039 4491 ft 128 kts 98°
2026-04-29 03:52 33.22810 -117.31001 4490 ft 125 kts 98°
2026-04-29 03:52 33.22691 -117.29976 4490 ft 124 kts 98°
2026-04-29 03:52 33.22571 -117.28958 4494 ft 124 kts 98°
2026-04-29 03:53 33.22451 -117.27937 4490 ft 124 kts 98°
2026-04-29 03:53 33.22330 -117.26914 4490 ft 125 kts 98°
2026-04-29 03:53 33.22209 -117.25890 4492 ft 123 kts 98°
2026-04-29 03:53 33.22089 -117.24881 4490 ft 123 kts 98°
2026-04-29 03:54 33.21970 -117.23878 4492 ft 122 kts 98°
2026-04-29 03:54 33.21852 -117.22875 4490 ft 122 kts 98°
2026-04-29 03:54 33.21731 -117.21831 4508 ft 134 kts 98°
2026-04-29 03:54 33.21594 -117.20683 4511 ft 144 kts 98°
2026-04-29 03:55 33.21448 -117.19467 4514 ft 150 kts 98°
2026-04-29 03:55 33.21299 -117.18214 4509 ft 154 kts 98°
2026-04-29 03:55 33.21148 -117.16938 4511 ft 156 kts 98°
2026-04-29 03:55 33.20993 -117.15644 4504 ft 158 kts 98°
2026-04-29 03:56 33.20839 -117.14356 4509 ft 156 kts 98°
2026-04-29 03:56 33.20687 -117.13069 4508 ft 157 kts 98°
2026-04-29 03:56 33.20533 -117.11777 4505 ft 158 kts 98°
2026-04-29 03:56 33.20375 -117.10477 4491 ft 159 kts 98°
2026-04-29 03:57 33.20034 -117.09225 4338 ft 158 kts 125°
2026-04-29 03:57 33.19262 -117.08347 4172 ft 152 kts 150°
2026-04-29 03:57 33.18293 -117.07969 4018 ft 148 kts 175°
2026-04-29 03:57 33.17281 -117.08118 3860 ft 147 kts 198°
2026-04-29 03:58 33.16368 -117.08628 3700 ft 142 kts 220°
2026-04-29 03:58 33.15808 -117.09542 3510 ft 135 kts 246°
2026-04-29 03:58 33.15605 -117.10616 3293 ft 132 kts 260°
2026-04-29 03:58 33.15454 -117.11654 3087 ft 122 kts 259°
2026-04-29 03:59 33.15302 -117.12614 2915 ft 113 kts 258°
2026-04-29 03:59 33.15157 -117.13513 2760 ft 108 kts 259°
2026-04-29 03:59 33.15019 -117.14373 2612 ft 104 kts 258°
2026-04-29 03:59 33.14883 -117.15213 2468 ft 102 kts 259°
2026-04-29 04:00 33.14749 -117.16037 2326 ft 100 kts 258°
2026-04-29 04:00 33.14625 -117.16831 2209 ft 95 kts 258°
2026-04-29 04:00 33.14496 -117.17608 2062 ft 94 kts 258°
2026-04-29 04:00 33.14376 -117.18356 1927 ft 91 kts 257°
2026-04-29 04:01 33.14261 -117.19082 1797 ft 88 kts 257°
2026-04-29 04:01 33.14148 -117.19787 1689 ft 84 kts 258°
2026-04-29 04:01 33.14028 -117.20496 1569 ft 89 kts 258°
2026-04-29 04:01 33.13914 -117.21240 1438 ft 93 kts 257°
2026-04-29 04:02 33.13783 -117.22002 1281 ft 94 kts 258°
2026-04-29 04:02 33.13684 -117.22763 1142 ft 92 kts 260°
2026-04-29 04:02 33.13541 -117.23513 1011 ft 92 kts 253°
2026-04-29 04:02 33.13444 -117.24251 924 ft 93 kts 258°
2026-04-29 04:03 33.13307 -117.24991 762 ft 84 kts 262°
2026-04-29 04:03 33.13211 -117.25630 658 ft 77 kts 257°
2026-04-29 04:03 33.13111 -117.26266 565 ft 80 kts 257°
2026-04-29 04:03 33.12999 -117.26930 424 ft 83 kts 258°
2026-04-29 04:04 33.12897 -117.27567 335 ft 68 kts 256°
2026-04-29 04:04 33.12823 -117.28009 330 ft 46 kts 258°
2026-04-29 04:04 33.12778 -117.28217 331 ft 16 kts 236°
2026-04-29 04:04 33.12709 -117.28259 331 ft 12 kts 136°
2026-04-29 04:05 33.12723 -117.28120 331 ft 23 kts 80°
2026-04-29 04:05 33.12762 -117.27895 330 ft 26 kts 79°
2026-04-29 04:05 33.12774 -117.27754 330 ft 7 kts 171°
2026-04-29 04:05 33.12711 -117.27741 330 ft 9 kts 169°
2026-04-29 04:06 33.12655 -117.27728 330 ft 6 kts 169°
2026-04-29 04:06 33.12620 -117.27712 328 ft 7 kts 123°
2026-04-29 04:06 33.12621 -117.27689 330 ft 0 kts 45°